145  
ASUS42 KTBW 081616  
RWRFL  
FLORIDA REGIONAL WEATHER ROUNDUP  
NATIONAL WEATHER SERVICE TAMPA BAY RUSKIN FL  
1100 AM EST MON FEB 08 2016  
 
NOTE: "FAIR" INDICATES FEW OR NO CLOUDS BELOW 12,000 FEET WITH NO  
SIGNIFICANT WEATHER AND/OR S TO VISIBILITY
.  
 
 
FLZ001>010-012>015-112-114-115-081700-  
PANHANDLE FLORIDA  
 
CITY SKY/WX TMP DP RH WIND PRES REMARKS
 
PENSACOLA SUNNY 59 43 55 W16 30.00F  
MILTON NAS SUNNY 54 40 59 W12 30.00  
CRESTVIEW SUNNY 57 39 51 SW10 30.00F  
MARY ESTHER MOSUNNY 59 45 59 W16G24 29.98F  
TRI COUNTY FAIR 57 39 51 SW10G17 29.98F  
PANAMA CITY FAIR 60 44 55 SW17G28 29.99F  
TYNDALL AFB SUNNY 61 45 55 W16 30.02F  
APALACHICOLA PTSUNNY 62 43 49 W20G25 30.04F  
 
STATION/POSITION SKY/WX TEMP WIND PRES WAVE SWELL
 
AIR SEA DIR/SP/G HT/PER HT/PER  
(F) (DEG/KT/KT) (MB) (FT/S) (FT/S)  
30.1N 87.6W 57 61 250/ 21/ 25 1015.9F 4/ 4  
28.8N 86.0W 62 69 280/ 21/ 25 1018.7F 6/ 6  
PANAMA CITY BEAC 57 59 260/ 23/ 25 1017.1R  
CAPE SAN BLAS NOT AVBL  
TOWER C NOT AVBL  
28.5N 84.5W 63 68 260/ 17/ 21 1018.6S 4/ 5 2/ 8  
 

 
FLZ011-016>038-118-127-128-134-139-239-081700-  
NORTH FLORIDA  
 
CITY SKY/WX TMP DP RH WIND PRES REMARKS
 
MARIANNA SUNNY 57 37 47 SW12 29.97F  
TALLAHASSEE MOSUNNY 59 34 39 W15 30.01F  
PERRY SUNNY 60 32 35 SW16 30.04F  
LIVE OAK N/A 57 36 44 SW10 30.04F  
CROSS CITY N/A 61 36 39 W14G23 30.05F  
LAKE CITY FAIR 55 34 44 W9 30.02F  
GAINESVILLE SUNNY 57 32 38 W14 30.04F  
WILLISTON FAIR 63 32 31 SW10 30.06F  
KEYSTONE HEIGH FAIR 57 25 28 W13G22 30.03F  
PALATKA FAIR 57 32 38 W12G17 30.05F  
MAYPORT NAS MOSUNNY 57 30 35 SW12 30.00F  
JACKSONVILLE MOSUNNY 57 29 34 W16G23 29.99F  
JAX NAS MOSUNNY 58 27 30 W15 30.02F  
JAX CRAIG SUNNY 57 28 33 W10 30.01F  
JAX CECIL SUNNY 57 30 35 SW12 30.01F  
FERNANDINA BEA FAIR 59 28 31 SW10 29.98S  
ST AUGUSTINE SUNNY 58 30 34 VRB7G16 30.03F  
PALM COAST SUNNY 55 34 44 SW12 30.05F  
 
STATION/POSITION SKY/WX TEMP WIND PRES WAVE SWELL
 
AIR SEA DIR/SP/G HT/PER HT/PER  
(F) (DEG/KT/KT) (MB) (FT/S) (FT/S)  
SHELL POINT 53 270/ 8/ 12 1016.3  
KEATON BEACH 54 270/ 8/ 9 1017.6F  
CEDAR KEY 57 250/ 3/ 5 1018.5F  
FERNANDINA 53 54 240/ 5/ 9 1015.8F  
30.7N 81.3W 54 N/A 3/14 2/14  
MAYPORT 52 55 240/ 10/ 11 1016.1F  
31.4N 80.9W 51 55 230/ 14/ 17 1014.2F 3/16 2/16  
ST AUGUSTINE 56 57 230/ 9/ 12 1017.3F  
 

 
FLZ040-043>046-052-053-057-058-063-144-081700-  
INTERIOR CENTRAL FLORIDA  
 
CITY SKY/WX TMP DP RH WIND PRES REMARKS
 
OCALA SUNNY 59 28 31 MISG 30.06F  
THE VILLAGES N/A 61 32 33 SW9 29.98F  
LEESBURG SUNNY 59 31 34 W8 30.09S  
SANFORD SUNNY 60 33 36 W13 30.08S  
ORLANDO EXEC SUNNY 59 33 37 W7 30.09F  
ORLANDO INTL MOSUNNY 59 33 37 W7 30.10S  
KISSIMMEE SUNNY 57 39 51 W9 30.10F  
WINTER HAVEN SUNNY 59 39 47 SW7 30.11F  
LAKELAND MOSUNNY 57 41 54 S6 30.11F  
BARTOW MOSUNNY 55 37 50 S6 30.12F  
OKEECHOBEE SUNNY 59 34 38 W6 30.14F  
 

 
FLZ041-047-054-059-064-141-147-081700-  
EAST CENTRAL FLORIDA  
 
CITY SKY/WX TMP DP RH WIND PRES REMARKS
 
ORMOND BEACH SUNNY 55 32 41 W12G18 30.06S  
DAYTONA BEACH MOSUNNY 58 34 40 SW9 30.07S  
DELAND N/A 57 28 33 W9G20 30.08F  
NEW SMYRNA BEA SUNNY 55 32 41 W12 30.06S  
TITUSVILLE SUNNY 57 34 41 W17 30.09F  
CAPE CANAVERAL SUNNY 59 36 42 W10 30.07F  
PATRICK AFB SUNNY 60 37 43 W12 30.09F  
MELBOURNE SUNNY 60 36 40 W12 30.10F  
VERO BEACH SUNNY 59 32 36 W14 30.12S  
FT PIERCE SUNNY 58 35 42 W12 30.12F  
STUART SUNNY 61 25 25 W13 30.15  
 
STATION/POSITION SKY/WX TEMP WIND PRES WAVE SWELL
 
AIR SEA DIR/SP/G HT/PER HT/PER  
(F) (DEG/KT/KT) (MB) (FT/S) (FT/S)  
28.5N 80.2W 56 72 280/ 16/ 19 1018.6R  
28.9N 78.5W 62 74 1017.0R  
TRIDENT PIER 55 64 260/ 7/ 11 1019.0R  
28.4N 80.5W 64 N/A 3/11 2/11  
27.5N 80.2W 71 N/A 7/15 5/15  
 

 
FLZ050-056-061-142-242-148-248-149-249-151-251-155-255-  
160-260-081700-  
WEST CENTRAL FLORIDA  
 
CITY SKY/WX TMP DP RH WIND PRES REMARKS
 
CRYSTAL RIVER FAIR 59 36 41 W8 30.08F  
INVERNESS FAIR 59 36 41 W6 30.09S  
BROOKSVILLE SUNNY 61 42 49 CALM 30.10F  
ZEPHYRHILLS FAIR 61 38 43 SW3 30.11S  
CLEARWATER AIR FAIR 61 45 55 W7 30.09F  
ST PETE CLEARW MOSUNNY 61 44 53 SW9 30.10F  
TAMPA INTL PTSUNNY 59 44 57 S10 30.11F  
TAMPA EXEC SUNNY 63 43 48 W5 30.11F  
PLANT CITY SUNNY 61 43 51 CALM 30.12F  
PETER O KNIGHT MOSUNNY 63 46 55 S10 30.11F  
ST PETERSBURG PTSUNNY 59 44 57 S13 30.09F  
SARASOTA MOSUNNY 60 42 51 SW8 30.11F  
VENICE FAIR 63 45 51 S6 30.13F  
 
STATION/POSITION SKY/WX TEMP WIND PRES WAVE SWELL
 
AIR SEA DIR/SP/G HT/PER HT/PER  
(F) (DEG/KT/KT) (MB) (FT/S) (FT/S)  
CEDAR KEY 57 250/ 3/ 5 1018.5F  
28.5N 84.5W 63 68 260/ 17/ 21 1018.6S 4/ 5 2/ 8  
27.3N 84.2W 71 N/A 6/ 8  
CLEARWATER BEACH 58 55 180/ 6/ 6 1019.5R  
MIDDLE TAMPA BAY 56 180/ 6/ 7 1020.2R  
VENICE 59 61 170/ 5/ 6 1019.7F  
 

 
FLZ066-069-070-075>078-162-262-165-265-081700-  
SOUTHWEST FLORIDA AND KEYS  
 
CITY SKY/WX TMP DP RH WIND PRES REMARKS
 
PUNTA GORDA SUNNY 61 44 53 NW6 30.14F  
FT MYERS PTSUNNY 62 43 49 CALM 30.13F  
SOUTHWEST INTL SUNNY 62 42 47 CALM 30.14F  
NAPLES MOSUNNY 61 44 53 VRB5 30.14F  
MARCO ISLAND CLOUDY 61 41 48 CALM 30.15S  
MARATHON SUNNY 61 42 49 N6 30.17S  
KEY WEST NAS MOSUNNY 62 47 57 E9 30.18R  
KEY WEST INTL MOSUNNY 62 49 62 NE5 30.18R  
 
STATION/POSITION SKY/WX TEMP WIND PRES WAVE SWELL
 
AIR SEA DIR/SP/G HT/PER HT/PER  
(F) (DEG/KT/KT) (MB) (FT/S) (FT/S)  
VENICE 59 61 170/ 5/ 6 1019.7F  
NAPLES 63 1020.9R  
26.0N 85.6W 67 79 310/ 16/ 19 1021.4R 4/ 8 3/ 8  
DRY TORTUGAS NOT AVBL  
SAND KEY 60 70/ 7/ 11 1022.2R  
LONG KEY 57 64 360/ 5/ 7 1022.2F  
MOLASSES REEF 58 71 360/ 10/ 12 1020.9F  
 

 
FLZ067-068-071>074-168-172>174-081700-  
SOUTHEAST FLORIDA  
 
CITY SKY/WX TMP DP RH WIND PRES REMARKS
 
W PALM BEACH MOSUNNY 60 32 34 NW12 30.15S  
BOCA RATON SUNNY 59 34 38 NW13 N/A  
FT LAUDER-EXEC MOSUNNY 60 33 36 NW13G21 30.15S  
FT LAUDERDALE SUNNY 61 37 41 NW14G21 30.14F  
POMPANO BEACH SUNNY 61 35 37 NW15 30.14F  
PEMBROKE PINES SUNNY 61 34 36 NW14 30.16F  
OPA LOCKA SUNNY 63 36 36 NW13 30.15F  
MIAMI MOSUNNY 60 37 42 NW8 30.15F  
WEST KENDALL SUNNY 61 40 45 NW10 30.16F  
HOMESTEAD NOT AVBL  
 
STATION/POSITION SKY/WX TEMP WIND PRES WAVE SWELL
 
AIR SEA DIR/SP/G HT/PER HT/PER  
(F) (DEG/KT/KT) (MB) (FT/S) (FT/S)  
VIRGINIA KEY 58 69 310/ 9/ 13 1021.2R  
LAKE WORTH 57 73 290/ 7/ 13 1020.3R  
SETTLEMENT POINT 62 300/ 13/ 15 1019.8S  
 

 
 
 
 
CLICK HERE TO GO TO PREVIOUS BULLETINS.

The Nexlab FL Page Main Text Page